sat.trackr.live / text

‹ back to catalog

STARLINK-32722

NORAD 62450 · 2024-251U

PAYLOAD ACTIVE UNKNOWN

§ Identity

Operator
Country
US
Launch date
2024-12-29
Launch site
AFWTR
Launch vehicle
Mass (kg)
RCS (m²)

Purposes: comms

External: N2YO · Heavens-Above · Gunter

§ Orbital elements

Epoch: 2026-09-21T20:44:13.522560Z

Period
93.85 min
Inclination
53.1590°
Eccentricity
0.0001410
Mean motion
15.34403266 rev/d
Perigee alt
461.7 km
Apogee alt
463.7 km
Semi-major
6,840.8 km
B*
8.3249e-4
RAAN
141.2479°
Arg perigee
106.5321°
Mean anomaly
253.5837°
Rev number
9,765

§ Raw data

STARLINK-327221 62450U 24251U   26264.86404540  .00027858  00000+0  83249-3 0  99902 62450  53.1590 141.2479 0001410 106.5321 253.5837 15.34403266 97658

JSON: /api/v1/satellites/62450 · /tle

For live sub-satellite position, see the globe view (requires WebGL).

§ Visibility from observer

Set your observer location to see the next 7 days of passes ≥ 10°. The values pass through the URL so the page stays shareable.

No JS? Fill the form by hand. The geolocation button needs JavaScript.